GFSSGP_500_spd_132.txt.gz
Wind_Speed
5 5 7 6 7 3 5 10 15 12 12 9 14 14 13 11 9 9 10 9 8 10 13 13 15 17 19 17 18 18 18 17 16 16 17 16 15 16 18 18 17 17 16 17 17 17 16 15 12
8 11 8 12 3 5 7 12 16 13 11 7 11 12 14 12 10 8 11 9 8 9 14 15 14 15 16 16 16 16 16 16 16 17 17 17 16 14 15 18 19 18 19 19 18 16 16 15 13
12 15 13 8 4 5 6 10 16 15 11 7 8 12 13 12 11 8 9 10 7 9 12 14 15 14 16 15 14 14 14 15 15 16 17 18 18 14 14 16 17 15 14 16 17 16 13 17 16
6 11 5 4 12 7 8 8 14 15 12 8 7 10 13 12 10 9 9 9 8 10 11 12 12 13 14 14 12 12 12 12 13 14 15 16 16 17 15 13 17 15 15 13 15 16 15 14 17
6 6 6 2 3 10 11 12 14 17 15 10 8 9 11 12 10 9 9 8 6 11 12 11 11 12 12 12 12 14 14 13 12 11 12 14 16 16 16 16 16 14 14 14 14 17 18 19 17
8 6 9 9 4 11 14 11 10 15 16 12 10 11 12 12 10 11 9 8 8 9 12 11 11 11 11 11 12 13 13 12 12 11 10 15 13 12 15 16 15 13 12 14 15 17 19 18 15
7 11 13 7 9 14 12 8 9 9 15 13 8 14 15 12 8 11 9 8 8 9 11 11 11 12 11 11 12 11 9 11 13 13 18 17 15 19 14 12 16 14 15 18 20 19 18 16 13
5 4 12 6 8 18 13 7 7 11 11 14 8 7 18 10 7 9 10 10 10 10 11 11 12 12 11 11 11 10 10 11 14 19 20 17 17 14 13 14 16 19 16 19 19 19 17 13 13
7 7 8 11 5 16 7 11 9 10 7 13 9 8 16 10 7 10 10 11 11 12 12 11 11 11 12 10 11 10 11 11 13 15 14 14 14 13 12 14 15 18 18 19 19 17 14 13 16
11 7 6 7 3 18 10 9 5 12 8 12 11 10 12 11 9 7 9 11 12 12 12 12 11 11 11 10 10 11 12 13 14 12 12 13 12 12 12 13 13 18 20 20 20 17 14 15 17
12 8 5 6 9 12 5 8 10 15 11 9 9 11 11 11 10 9 10 11 12 12 12 11 11 11 10 11 10 11 14 16 14 12 10 11 12 13 13 13 16 19 21 21 18 17 16 18 18
13 8 1 6 2 5 13 7 12 10 11 8 7 8 11 11 10 10 9 12 11 11 13 11 10 10 10 11 11 10 14 15 14 13 12 11 13 13 12 14 17 19 19 19 19 18 19 20 20
15 12 8 5 7 6 15 4 18 12 11 9 7 5 10 10 8 9 7 9 11 11 12 13 10 10 10 12 12 12 16 16 14 13 13 14 12 13 15 15 18 19 19 19 19 20 22 22 23
14 13 10 9 10 5 12 4 6 8 6 7 6 5 9 10 8 9 8 10 11 12 11 14 12 11 10 14 13 16 20 18 14 13 13 14 12 13 15 18 18 16 17 18 19 21 22 23 24
17 17 12 12 9 3 4 13 10 3 7 5 8 7 10 9 5 9 9 11 12 12 12 13 12 12 13 16 14 15 17 15 15 12 13 14 13 12 14 15 15 16 17 17 20 21 22 22 21
20 17 14 14 15 7 7 12 13 14 7 13 8 7 10 6 6 7 8 10 12 12 12 13 13 15 15 15 16 13 16 17 17 15 15 14 12 12 14 15 16 18 16 16 20 20 20 20 18
21 19 14 18 13 9 12 13 21 18 13 13 9 9 9 7 7 7 8 7 11 11 12 13 15 15 15 14 14 14 17 19 16 16 14 14 13 13 13 15 17 16 16 16 19 18 17 16 14
25 23 22 20 16 13 12 13 10 21 16 12 12 11 12 8 8 7 7 7 9 10 13 11 16 16 15 15 17 18 18 19 17 13 14 14 14 14 15 15 18 18 19 18 17 15 13 10 9
27 27 25 25 15 13 14 12 9 16 13 12 13 13 12 11 10 7 8 9 10 9 13 12 16 16 17 18 20 20 18 17 14 13 14 15 15 14 15 13 16 17 17 17 16 15 12 10 7
28 25 25 27 27 17 19 17 12 13 17 15 11 17 14 11 11 8 9 11 12 12 11 11 15 16 18 20 21 19 18 19 14 14 11 13 14 13 13 12 13 16 18 16 17 16 13 10 6
27 25 25 25 24 19 18 20 15 16 23 21 19 19 15 14 12 11 11 13 13 11 12 12 11 16 17 19 20 18 18 17 17 13 14 13 13 11 10 10 12 13 16 16 16 16 14 12 10
26 24 22 24 31 13 12 17 19 26 29 25 22 20 16 16 12 12 11 13 14 13 13 15 13 15 16 18 20 19 18 17 14 14 13 13 12 11 9 9 10 13 15 16 16 15 15 13 12
26 27 24 26 30 18 16 15 23 17 27 28 21 23 22 19 17 16 14 13 15 12 12 14 15 15 17 18 19 18 17 16 14 13 12 11 12 13 12 10 10 11 13 15 13 13 13 13 11
29 29 27 22 30 25 14 18 16 23 18 32 26 23 24 21 21 18 15 14 16 16 13 12 11 15 16 16 18 18 18 17 15 14 14 12 11 10 11 11 9 9 10 11 13 12 11 10 11
27 22 25 27 23 22 16 19 20 15 17 29 31 27 23 24 23 19 15 15 15 16 16 13 14 16 17 17 17 15 15 15 15 13 12 12 12 10 10 11 10 7 8 9 10 10 11 10 8
24 23 23 22 21 23 7 11 14 11 12 28 35 33 27 29 27 22 20 20 18 17 16 16 14 14 17 18 16 17 17 16 15 15 13 11 11 11 12 12 11 10 7 7 7 8 9 9 8
25 22 23 23 30 15 17 8 14 8 4 21 32 33 29 27 28 26 22 22 20 19 19 18 17 16 15 15 16 16 16 16 16 16 14 12 11 10 10 13 15 12 11 9 7 6 7 7 7
28 24 21 17 29 29 19 9 14 17 9 18 27 26 26 25 28 29 27 26 24 23 22 20 20 18 14 14 15 16 15 15 16 15 14 14 12 10 9 10 13 13 13 12 11 10 8 7 6
28 29 30 25 28 21 22 17 18 21 12 4 15 20 19 21 27 31 30 30 28 27 24 21 21 20 20 18 17 16 16 15 16 16 16 15 14 12 12 12 12 12 13 13 13 12 11 11 13
30 29 27 27 26 24 21 19 27 14 7 13 4 18 15 14 19 30 34 36 32 29 27 26 24 21 21 20 19 19 18 17 17 16 15 14 15 16 16 15 15 15 15 14 14 13 13 14 16

GFSSGP_500_spd_135.txt.gz
Wind_Speed
8 10 6 3 3 8 8 8 13 11 11 9 7 12 13 12 11 11 13 10 11 10 12 14 15 19 21 21 20 20 19 18 18 15 14 14 14 15 16 16 15 15 17 16 16 15 15 14 11
10 9 6 6 4 6 7 9 12 12 12 8 7 9 12 12 12 10 13 11 11 11 12 15 17 19 18 18 18 17 18 17 16 16 16 16 16 16 17 17 16 16 17 18 18 18 15 13 9
10 15 13 8 7 6 8 8 12 12 12 9 7 8 10 11 11 10 11 13 11 12 12 15 17 18 18 17 16 16 16 16 16 17 17 16 14 14 15 15 13 12 15 12 13 15 14 15 13
9 12 13 10 11 9 11 10 11 13 11 9 7 7 10 12 11 10 11 11 10 11 13 14 15 15 15 15 14 14 15 15 15 16 16 17 16 14 13 14 11 12 16 13 13 17 16 13 15
5 8 6 16 8 12 11 12 12 13 12 9 7 7 10 12 10 10 11 11 7 11 12 13 13 13 13 12 12 13 13 13 12 14 15 16 18 18 15 13 11 10 12 13 12 13 16 13 10
4 6 7 2 9 12 11 12 12 13 12 11 8 8 10 11 10 10 11 11 8 8 12 11 12 12 13 14 15 15 13 12 11 10 13 15 16 18 16 15 13 13 15 16 14 17 17 13 11
7 6 13 4 12 12 15 12 11 13 12 13 10 11 12 12 9 9 12 10 10 10 11 10 11 12 13 13 14 13 13 12 10 12 12 12 15 15 16 13 13 13 14 16 17 17 15 12 10
11 10 15 3 13 12 17 12 11 12 12 12 12 9 12 13 9 9 12 11 10 11 11 11 11 11 12 13 13 12 15 15 21 20 17 18 15 13 14 16 18 16 18 18 16 15 13 11 11
5 4 9 7 8 13 13 15 14 14 11 12 13 8 11 16 10 9 10 11 11 12 11 10 10 10 10 13 13 13 16 16 16 16 17 15 12 13 15 17 21 18 18 17 16 14 12 11 13
8 2 7 9 6 15 14 9 8 14 11 12 13 10 12 16 10 8 9 10 11 12 12 12 10 9 11 13 13 13 15 16 15 14 14 13 12 13 13 18 18 16 17 17 15 13 12 14 15
14 6 5 6 9 15 14 13 18 15 14 11 10 12 13 14 10 9 9 10 10 12 12 12 10 10 12 13 13 14 17 16 15 13 12 11 12 14 15 16 18 19 18 17 14 13 14 15 17
14 8 3 3 3 7 10 12 16 12 13 14 10 12 14 14 12 8 9 8 10 11 12 11 10 10 12 13 13 15 16 15 14 13 13 14 13 12 14 17 18 19 19 16 14 13 15 16 18
14 10 6 6 4 9 10 7 16 10 12 14 11 11 14 14 11 8 8 7 9 10 10 12 10 10 10 13 12 17 15 15 14 14 15 14 14 16 17 19 19 19 17 15 14 15 15 17 18
15 13 9 3 6 8 8 15 21 11 14 11 9 11 12 14 11 9 8 9 8 9 10 11 12 11 10 13 13 19 17 16 14 13 12 14 16 18 18 17 17 16 16 15 15 16 16 17 18
16 16 12 7 6 10 15 10 25 14 10 8 9 12 13 14 11 9 9 10 10 10 11 11 11 12 12 13 17 19 17 16 14 14 14 14 17 20 19 18 18 17 16 15 16 18 18 18 15
18 16 15 13 8 11 6 15 16 7 8 9 11 10 10 13 10 9 9 9 10 11 11 12 13 14 13 14 16 15 14 13 16 15 14 14 16 17 17 18 20 19 18 17 19 18 17 17 15
20 19 17 14 10 11 6 11 6 9 13 14 10 12 9 10 12 10 10 9 10 11 12 14 15 15 16 16 16 14 17 14 14 14 13 15 15 16 17 19 20 20 19 19 19 19 17 16 14
23 22 21 14 15 13 14 11 15 17 14 18 13 13 11 10 12 11 10 11 10 11 13 13 15 16 16 16 17 18 19 15 13 14 13 14 15 14 16 17 18 20 19 19 18 17 16 14 12
22 24 24 23 23 12 13 15 9 11 21 18 13 12 13 13 12 11 10 10 11 12 12 12 13 15 17 19 21 20 18 16 15 16 14 13 14 13 14 15 17 18 19 18 17 18 15 12 11
23 24 27 27 25 24 17 13 14 12 17 16 18 15 13 13 12 11 10 9 12 11 12 13 14 14 18 20 22 21 18 16 17 15 13 13 13 12 12 14 15 16 18 17 15 15 14 11 9
21 24 26 27 27 27 24 16 18 17 21 20 16 18 16 15 14 13 11 11 9 11 12 13 13 15 18 21 20 18 17 16 18 16 14 14 13 13 12 12 13 14 16 17 15 14 13 11 8
19 22 24 25 26 25 18 17 27 19 18 19 19 20 17 16 13 13 13 13 12 11 12 14 14 16 18 19 19 20 18 16 15 15 15 15 13 13 13 12 13 13 13 14 13 12 11 11 9
22 22 23 23 25 29 24 15 21 19 24 31 22 23 17 17 18 17 15 14 14 12 11 13 15 15 18 19 19 19 17 16 14 13 12 12 11 9 10 11 11 12 13 12 12 11 9 7 8
22 24 23 22 23 22 29 18 19 22 27 30 31 25 25 20 21 19 18 17 15 14 13 13 13 15 17 18 18 17 19 17 15 15 13 13 13 11 9 8 9 10 11 12 13 12 9 7 7
22 22 22 22 24 24 28 13 17 20 23 21 27 30 28 28 25 20 17 17 17 17 15 14 14 16 16 17 18 17 15 15 14 13 12 12 12 12 11 9 8 8 9 10 11 11 10 8 8
24 22 19 19 18 21 29 9 15 20 23 22 24 33 28 30 27 22 21 20 19 18 18 17 15 16 17 16 17 17 15 14 14 15 14 12 11 10 11 12 11 10 9 8 8 8 8 8 8
22 21 19 18 22 20 16 9 13 15 17 22 28 37 35 29 28 26 23 21 21 20 19 18 17 16 16 17 15 14 15 16 15 14 13 12 12 11 11 13 13 11 10 11 9 8 8 8 7
23 19 20 17 17 16 18 11 3 16 16 10 22 44 34 29 31 28 26 24 22 22 20 19 18 16 18 16 16 17 15 14 14 14 13 12 11 11 10 12 15 14 13 12 10 9 9 8 8
24 23 20 20 18 17 22 15 22 12 10 12 24 38 33 31 29 29 29 28 27 25 24 22 20 19 19 19 17 16 16 16 16 15 15 13 13 12 12 12 14 16 15 14 12 11 11 11 12
29 25 22 21 16 19 19 16 21 15 12 11 18 33 35 33 30 32 32 34 31 28 26 25 23 21 20 18 17 17 16 16 17 17 15 15 15 14 14 14 14 15 16 16 16 16 16 15 15

GFSSGP_500_spd_138.txt.gz
Wind_Speed
7 9 5 6 7 8 7 6 10 9 9 10 5 6 8 10 11 11 12 11 11 12 15 15 21 21 21 21 20 18 15 14 12 11 11 11 12 16 16 15 15 11 11 12 14 12 9 8 7
9 7 6 4 8 8 6 6 8 9 10 11 6 7 7 10 11 11 13 11 10 13 15 18 19 17 20 20 19 17 15 15 13 12 12 13 13 14 15 14 13 12 13 14 15 13 10 9 4
13 8 4 9 9 8 7 7 7 8 8 11 7 6 7 9 10 10 13 13 11 13 15 16 18 19 16 17 17 17 16 15 15 14 13 12 12 14 13 13 13 13 14 17 16 13 10 14 16
9 8 5 3 12 10 11 8 8 9 8 9 7 7 7 10 9 10 12 13 13 14 15 15 16 16 15 14 14 14 15 15 15 14 12 11 11 14 14 13 9 12 9 9 7 12 15 19 18
4 5 9 10 10 11 10 9 7 7 8 9 7 6 8 10 9 9 11 12 11 13 15 14 14 14 13 14 14 13 13 13 14 16 15 14 13 12 10 7 7 16 14 19 18 17 17 14 14
1 9 6 8 8 10 12 9 8 7 7 7 8 8 8 9 10 9 10 12 10 10 12 13 13 12 13 15 16 14 13 12 13 13 14 14 15 15 14 12 11 11 18 19 20 18 16 14 10
6 7 7 8 14 13 14 12 9 7 8 7 8 9 10 10 10 9 10 11 11 10 10 12 12 11 12 14 15 14 12 11 12 14 14 15 16 16 13 13 16 17 21 22 18 16 14 11 10
4 4 9 2 15 18 16 14 11 9 8 7 8 7 10 12 12 9 10 12 10 9 10 10 11 14 12 12 13 14 12 14 14 13 15 15 15 16 16 16 17 18 19 17 15 13 12 11 13
5 6 8 8 19 20 19 17 15 12 11 8 7 6 8 14 13 9 10 12 11 9 10 10 9 10 11 12 14 16 20 19 19 20 19 15 14 17 17 18 19 17 17 15 13 12 13 13 14
5 5 6 9 6 18 13 15 15 13 12 9 10 9 7 13 13 9 10 10 11 10 10 10 9 9 12 11 13 19 19 17 17 16 14 14 15 18 20 19 18 17 16 13 12 12 13 14 16
10 4 5 7 10 12 15 13 17 14 13 11 8 11 10 13 12 11 11 10 10 9 10 11 12 11 12 10 15 18 17 14 14 13 13 14 16 18 18 16 16 16 15 13 13 13 14 16 17
12 10 6 2 5 8 17 16 17 13 12 12 8 10 13 13 12 10 10 9 10 9 9 9 11 11 11 13 15 18 17 14 12 11 12 12 15 15 16 15 15 15 14 13 14 14 16 18 18
11 10 7 2 4 4 9 20 16 14 13 13 11 9 13 13 14 11 11 10 9 9 9 10 11 11 11 13 16 17 16 14 12 12 12 11 14 15 16 18 17 16 14 14 15 14 17 19 19
11 13 8 6 1 3 11 14 18 15 13 13 13 10 10 11 12 11 11 9 8 8 8 10 12 11 11 12 18 17 16 15 13 13 11 11 15 16 16 17 17 15 14 16 16 16 18 18 18
14 14 11 8 5 7 11 16 16 17 15 14 14 11 11 12 11 10 10 8 8 8 9 9 12 12 12 14 19 17 15 14 13 13 13 13 16 17 17 17 16 16 16 16 16 17 19 19 19
15 15 10 12 10 11 10 13 20 21 17 13 16 11 12 11 11 10 10 8 8 8 8 9 12 13 14 17 19 17 15 13 15 15 13 15 16 16 17 18 18 16 16 17 16 18 19 20 20
14 18 14 13 13 10 9 10 30 10 19 15 16 14 13 11 11 9 9 9 8 8 9 10 12 15 16 19 19 16 14 15 16 13 14 15 14 13 16 17 17 18 18 18 17 18 19 19 19
17 18 20 12 16 15 8 3 15 13 17 18 15 17 12 9 11 10 9 9 9 10 10 12 14 15 17 17 19 19 17 16 15 14 15 15 14 14 16 17 18 19 19 19 18 17 17 17 17
17 21 23 19 20 23 4 4 4 14 16 19 18 16 13 11 12 13 10 10 8 10 10 11 14 14 15 18 21 20 18 17 15 15 15 15 14 13 14 15 17 19 20 20 19 17 15 13 11
18 20 24 27 26 23 17 9 15 13 17 21 21 16 16 14 14 14 12 12 10 10 9 11 12 14 16 18 20 20 20 19 17 17 16 15 14 13 14 15 17 19 20 20 20 17 14 12 9
16 21 23 27 25 27 25 17 14 16 15 27 20 21 19 17 15 15 14 12 13 11 10 11 11 15 18 19 22 20 20 20 19 18 16 14 13 13 13 14 15 17 19 19 19 17 15 12 10
12 21 22 23 23 24 25 26 20 19 19 25 22 22 21 18 14 13 14 13 13 14 12 12 12 15 18 19 18 18 19 18 18 18 17 15 13 12 12 13 15 15 17 18 16 15 13 12 10
21 18 21 20 23 22 21 25 14 26 19 24 23 24 24 22 18 15 14 13 13 13 14 13 14 15 18 17 17 16 17 17 16 16 15 14 13 13 12 11 12 13 14 14 14 15 13 11 11
18 18 19 19 20 19 18 20 19 19 24 22 28 26 27 24 22 18 16 14 12 12 16 17 17 17 18 18 17 17 16 17 17 16 14 13 12 11 11 10 10 11 12 12 12 12 11 11 10
17 16 13 11 14 14 19 20 24 19 23 28 22 32 28 25 23 20 18 17 15 14 14 18 18 18 18 19 19 18 16 15 15 15 14 12 12 10 10 11 10 9 10 11 11 10 9 8 9
17 15 13 9 17 10 14 18 22 16 20 24 27 20 31 29 24 23 22 21 19 16 15 17 17 18 18 17 17 17 16 16 14 13 13 12 12 12 12 11 11 11 11 12 12 12 12 11 10
17 19 16 12 18 16 13 15 18 16 18 21 24 28 33 34 29 27 26 24 22 20 18 16 16 19 20 20 19 18 16 15 15 14 13 12 13 12 11 12 12 11 11 12 13 13 13 12 11
18 15 15 14 9 7 16 11 7 7 14 19 25 27 30 37 34 32 29 27 25 24 21 18 16 19 19 19 20 19 17 15 13 13 12 12 11 10 11 12 12 12 11 10 10 11 12 11 10
18 17 16 20 17 11 8 13 17 11 4 20 22 33 38 38 37 33 32 30 28 27 24 22 19 16 18 19 19 19 18 17 17 15 14 12 11 11 9 12 14 15 13 13 11 10 10 11 11
20 17 18 19 13 12 14 12 21 14 16 4 18 30 41 38 35 35 35 34 31 29 27 25 23 20 19 18 18 18 17 17 17 16 15 15 14 12 12 13 13 14 16 17 15 14 14 14 14

GFSSGP_500_spd_141.txt.gz
Wind_Speed
8 7 10 7 11 8 7 5 4 5 4 6 4 4 3 6 4 8 10 8 8 11 11 11 19 19 18 18 18 15 13 12 11 12 11 10 12 12 12 11 10 10 10 10 9 8 6 5 6
12 4 3 8 8 10 3 3 4 3 3 4 5 4 5 5 6 8 10 8 9 10 12 15 15 16 18 18 18 15 13 12 12 11 10 10 11 14 11 12 10 10 9 10 11 9 4 7 6
9 5 9 9 17 17 4 5 4 5 4 4 4 4 5 5 7 8 9 9 10 11 12 13 13 14 15 16 16 14 13 12 11 10 11 11 12 13 12 11 10 9 9 9 10 9 5 9 19
11 4 1 12 17 7 6 5 3 3 4 4 5 3 5 6 8 8 9 10 9 10 12 12 11 12 12 13 14 15 13 12 12 12 11 11 12 11 9 9 8 8 8 10 10 13 14 20 16
6 5 3 7 7 5 7 5 4 4 3 3 4 3 5 8 8 8 10 10 9 9 11 11 9 9 10 11 12 13 12 12 11 11 10 11 12 12 10 8 6 5 8 8 18 19 17 18 17
4 10 6 8 11 10 8 6 4 4 4 4 4 4 5 8 10 10 11 12 9 8 9 10 9 8 9 10 10 11 11 11 12 12 12 12 11 10 9 7 11 16 17 21 23 17 16 20 19
5 9 0 10 10 10 10 9 7 6 5 4 4 5 5 8 9 10 11 11 11 8 7 8 8 9 9 10 10 10 10 10 10 11 13 13 13 14 15 14 20 22 24 22 18 16 18 20 20
2 5 6 7 13 12 11 11 9 8 6 4 5 4 5 7 10 10 11 12 11 9 8 8 8 9 11 11 9 8 8 10 11 11 12 12 12 13 17 17 19 20 19 19 18 17 20 20 21
2 7 3 6 15 17 14 14 13 11 8 5 5 5 5 7 10 9 9 11 11 10 9 7 12 9 9 9 10 10 14 14 14 13 13 12 13 14 17 18 19 19 18 18 18 18 20 21 23
6 9 9 8 14 22 21 17 14 10 8 6 6 7 6 8 9 9 8 10 10 10 9 10 10 10 10 10 12 14 15 16 18 14 12 12 16 16 17 18 16 17 18 17 18 19 21 22 25
9 8 6 9 8 21 12 18 14 11 9 7 6 7 9 10 11 11 9 9 9 8 8 9 10 12 7 12 16 15 13 14 12 11 11 12 16 17 16 17 16 16 16 16 19 21 23 22 25
10 12 9 7 7 7 16 17 16 13 11 8 6 4 8 11 10 10 9 8 9 8 8 8 8 9 8 14 17 15 12 11 10 10 10 11 16 13 12 15 12 16 14 18 21 23 23 24 25
10 11 10 6 4 7 13 18 18 15 13 11 8 7 6 11 12 12 9 9 8 7 7 7 8 9 9 17 17 15 13 11 10 10 16 9 13 12 13 12 16 17 9 18 21 22 23 25 25
17 10 9 7 3 4 8 16 22 17 14 12 10 8 5 7 11 11 8 9 9 7 6 8 8 10 11 14 15 13 12 11 11 9 12 15 13 15 18 14 15 20 15 18 22 21 23 24 23
10 11 11 9 9 8 8 13 19 19 15 14 11 9 8 8 10 10 8 9 8 7 7 7 8 10 12 16 15 13 12 13 10 10 11 14 17 19 19 24 17 16 18 20 21 21 23 23 21
10 10 8 11 11 10 14 13 14 18 19 16 15 12 10 8 9 10 9 9 7 6 6 7 9 10 13 17 15 14 12 12 13 12 12 15 17 17 20 19 17 17 19 19 21 21 22 21 19
5 7 18 20 13 12 14 14 24 23 22 19 16 14 12 10 8 10 10 9 9 6 6 7 9 12 17 19 16 14 14 13 13 13 12 13 15 15 16 15 16 18 19 19 22 21 20 18 17
21 14 24 19 20 21 13 10 20 28 30 23 20 15 12 10 7 9 11 10 9 8 6 8 11 15 20 19 15 15 16 13 12 15 14 12 13 14 16 16 17 21 16 19 21 20 18 16 14
18 13 19 17 22 18 20 3 10 22 24 27 19 19 13 10 9 7 10 10 9 8 8 10 11 15 18 19 16 16 17 14 12 14 14 14 14 15 15 18 13 33 17 19 20 18 15 13 11
8 10 30 25 25 22 20 22 9 22 22 29 22 23 12 10 8 8 9 12 10 9 8 10 12 13 15 16 17 17 16 16 13 14 14 14 14 15 15 17 21 23 22 21 20 18 14 13 10
19 13 17 25 21 20 23 23 15 10 17 22 21 22 16 13 20 11 9 12 11 10 10 9 11 13 14 17 18 18 16 15 15 13 14 14 14 14 15 17 18 13 18 16 18 18 16 12 9
8 22 26 27 10 18 15 15 26 18 15 15 26 22 28 22 17 14 12 11 12 11 11 11 12 14 16 17 18 18 15 14 15 15 14 14 15 15 14 15 18 22 5 21 15 14 14 11 8
18 25 22 17 12 15 19 13 30 25 21 16 26 33 27 19 20 18 15 13 12 12 13 13 14 17 18 18 16 15 16 14 13 12 12 12 13 13 14 13 15 18 19 18 16 13 12 10 8
23 22 19 15 12 11 19 20 28 26 19 20 26 24 27 27 23 18 15 15 14 13 13 14 15 19 18 18 16 16 16 14 13 11 10 9 9 10 11 12 13 16 18 17 15 14 12 11 10
17 10 8 9 12 12 20 18 12 25 25 15 20 29 30 27 25 17 19 16 16 15 15 14 15 18 19 18 18 17 16 14 13 12 10 9 8 8 8 9 9 11 14 15 15 14 14 13 12
15 13 12 18 7 17 13 13 19 23 28 12 21 19 31 30 25 22 21 23 19 17 15 17 17 18 19 19 18 17 16 15 14 13 12 11 10 9 9 9 9 10 11 14 14 15 14 12 12
13 17 16 20 7 14 11 8 15 19 21 10 16 17 18 32 29 26 26 21 25 20 18 18 18 19 20 20 19 18 16 15 14 13 12 11 10 10 10 10 10 9 9 11 13 13 15 14 13
19 26 16 15 17 14 11 12 21 17 10 20 16 20 21 25 32 29 29 29 26 23 21 19 18 19 21 20 20 20 18 17 15 15 13 12 11 11 11 11 11 11 10 11 12 13 13 13 12
19 18 11 16 27 15 11 16 19 18 16 21 23 27 30 33 31 36 33 30 27 25 22 21 19 17 20 21 20 19 19 18 17 17 15 13 12 12 11 11 12 12 13 12 12 12 12 11 11
21 21 16 21 19 24 25 13 2 17 21 15 21 28 27 31 33 38 38 35 31 27 26 23 22 20 19 20 20 19 19 18 18 17 16 16 16 15 15 13 12 13 15 15 15 14 14 15 15

GFSSGP_500_spd_147.txt.gz
Wind_Speed
3 7 8 8 10 7 12 15 3 8 8 7 6 8 7 2 5 7 7 5 5 7 10 8 5 8 4 4 10 14 11 12 10 11 13 11 7 5 3 1 2 8 8 9 7 8 11 5 6
1 5 8 6 7 12 11 2 2 12 5 8 8 7 5 5 8 5 5 6 4 9 12 15 13 7 5 8 7 10 11 9 9 12 12 11 10 6 4 3 4 6 3 4 5 7 3 13 17
5 4 9 10 13 11 6 3 1 5 4 6 7 4 5 5 5 5 6 9 7 10 15 15 15 12 8 9 9 10 9 15 10 10 12 8 6 9 6 6 4 4 3 3 5 16 16 17 18
6 7 5 13 16 12 9 3 3 3 10 9 9 9 6 3 4 6 6 8 9 8 12 15 13 12 14 13 14 13 13 12 10 8 10 8 7 6 4 4 2 2 4 8 20 17 14 15 15
8 3 7 14 23 16 18 8 6 7 6 9 9 9 7 3 1 7 8 8 8 8 11 11 10 10 11 13 13 13 13 12 9 9 9 7 6 3 3 3 2 5 11 19 20 16 15 17 18
8 2 14 20 27 18 13 6 2 9 3 6 9 9 5 2 4 9 8 8 7 10 9 10 9 9 10 12 12 12 13 13 12 10 8 6 5 6 11 11 12 21 27 23 19 18 18 19 21
8 10 17 12 16 8 13 3 4 4 9 8 8 8 6 5 4 3 12 11 6 8 8 9 8 8 9 10 10 11 12 13 14 13 12 12 12 10 8 17 31 32 26 23 21 20 20 23 24
12 24 12 16 15 14 5 6 4 2 6 6 7 6 5 6 6 3 4 5 9 10 9 8 7 7 8 12 11 10 11 12 14 15 15 15 15 19 20 24 27 28 24 23 21 21 24 28 30
15 22 17 13 18 9 13 6 11 5 11 8 6 7 6 6 3 3 4 4 6 6 8 6 9 9 8 10 13 13 12 14 15 13 14 17 15 21 25 26 24 24 26 26 26 27 29 32 35
7 10 13 14 16 13 12 14 7 5 5 7 8 8 6 5 3 2 3 4 2 8 5 4 10 9 8 6 11 13 13 13 13 14 14 18 21 26 28 23 24 26 26 26 30 30 31 33 31
6 6 7 9 16 17 12 11 7 7 1 2 4 6 6 5 1 2 4 4 5 6 1 6 10 11 11 9 10 13 13 11 10 12 13 14 20 22 25 22 22 24 26 30 31 31 31 30 28
6 2 2 7 11 14 5 12 6 5 1 3 1 3 3 4 2 2 3 4 7 7 9 15 15 15 12 13 14 12 14 10 7 10 13 15 19 21 22 21 24 27 25 27 31 33 30 26 26
8 16 4 5 9 9 12 12 3 8 7 7 2 3 3 1 5 2 0 5 9 8 11 10 9 11 11 16 17 10 10 8 7 12 16 20 18 19 18 20 25 28 29 28 30 33 28 24 23
14 5 11 4 4 5 7 10 9 9 8 7 6 1 1 5 5 4 5 1 7 10 11 10 7 9 11 16 16 10 11 3 7 11 19 20 16 32 27 21 24 26 25 25 29 30 28 24 22
3 14 6 4 5 6 4 3 11 11 16 16 8 3 4 5 6 7 5 6 3 10 10 9 9 7 9 11 9 9 10 9 8 15 18 26 21 24 23 24 26 30 29 27 27 26 25 21 18
5 10 2 5 6 8 8 5 11 10 17 11 12 8 8 9 6 6 8 3 9 9 8 7 9 7 6 9 9 6 12 6 5 6 7 18 19 12 22 19 22 24 24 23 25 22 22 20 16
10 11 7 14 13 17 10 10 10 10 18 17 15 13 13 17 8 9 7 8 7 10 11 9 10 11 9 8 7 9 9 8 7 9 8 9 14 21 20 17 18 22 20 21 22 22 20 16 15
12 13 20 18 10 10 12 7 11 17 18 21 16 13 16 12 12 10 9 10 8 9 10 9 8 10 11 9 8 8 11 10 10 11 11 11 11 23 12 14 14 16 14 16 18 18 17 15 8
13 17 19 19 20 12 10 10 10 10 19 15 19 14 12 13 13 8 10 10 9 10 11 10 10 11 10 7 4 6 7 8 10 6 12 12 14 15 18 16 12 13 13 14 15 17 17 17 11
9 13 17 15 11 7 7 10 12 6 12 16 18 14 12 8 9 13 12 13 13 11 12 11 11 12 8 7 6 6 6 7 7 11 9 13 9 11 13 11 12 10 9 10 10 9 9 8 10
13 14 15 16 11 7 8 10 14 14 8 22 18 19 20 13 11 12 12 13 13 13 13 12 11 11 10 8 7 7 7 9 9 9 10 13 15 13 12 16 7 10 11 10 10 8 9 11 6
5 14 17 13 8 15 20 22 19 13 9 3 17 23 16 15 15 13 10 17 13 14 12 12 12 11 11 10 9 9 8 11 10 11 11 13 18 17 17 17 13 14 12 10 10 11 7 6 6
8 16 21 19 22 23 25 22 12 12 11 15 8 17 9 18 28 16 15 15 14 15 14 13 12 12 11 11 10 10 7 7 10 7 7 7 14 15 16 15 16 12 10 11 14 12 6 3 3
19 22 20 20 21 15 11 20 10 10 6 5 13 16 16 21 30 23 18 14 11 12 14 13 13 13 13 12 13 11 10 9 6 6 5 5 8 14 14 14 15 17 13 13 12 11 9 3 6
11 11 10 14 13 5 16 17 13 7 10 16 9 9 16 27 21 19 21 15 13 15 15 14 15 14 14 15 14 11 9 7 7 9 7 7 7 8 12 12 10 11 10 9 16 11 6 9 6
12 6 9 13 17 15 20 16 8 7 7 13 13 8 15 22 27 24 17 23 16 18 16 15 15 16 15 16 14 13 12 9 8 5 5 4 5 5 4 8 11 9 8 8 6 9 11 9 7
9 8 12 19 24 15 13 14 16 12 12 11 4 5 6 17 18 21 22 21 18 17 15 16 16 17 17 16 15 14 12 12 12 10 9 9 7 4 2 1 2 4 5 7 9 11 8 8 9
11 11 13 17 26 19 17 9 9 15 20 15 11 10 11 12 22 23 22 25 25 25 14 16 16 17 17 16 15 15 14 14 13 12 11 9 8 7 6 7 6 6 6 5 6 7 9 9 9
8 9 14 20 25 24 27 11 13 20 22 7 12 14 11 12 21 23 25 27 24 20 23 16 18 19 18 18 19 18 18 17 16 17 14 12 10 9 8 9 8 8 8 7 7 7 8 8 8
11 6 15 18 25 31 25 27 26 20 22 12 13 10 11 12 11 23 22 29 24 25 23 17 20 22 20 20 19 19 18 18 19 18 16 14 12 11 10 9 8 8 6 6 7 8 7 8 8